Вернуться в каталог

FENGYUN 1C DEB

АктивенSSO
NORAD 31381·DEBRIS·🇨🇳 China

Запущен May 10, 1999 с Taiyuan Satellite Launch Center

Loading…

Ближайшие Пролёты (ближайшие 24 часа)

TLE

УстаревающийSource: Space-Track

Эпоха: Sep 6, 2026, 11:54 UTC

1 31381U 99025BSM 26249.49630712  .00000354  00000-0  10828-3 0  9990
2 31381  98.4774 334.5184 0194730 312.3501  46.1334 14.37924240 12442

Отслеживайте FENGYUN 1C DEB в реальном времени с AllMySat

Download on the App Store